(266282) = 2007 BA7

Discovered at Palomar on 2007-01-18 by NEAT.

Orbit

Orbit type: Main Belt

Note: WebGL enabled browser required.

epoch2022-01-21.0
epoch JD2459600.5
perihelion date2018-10-27.38318
perihelion JD2458418.88318
argument of perihelion (°)80.41840
ascending node (°)95.01100
inclination (°)3.15548
eccentricity0.1418206
perihelion distance (AU)2.0804088
Tisserand w.r.t. Jupiter3.5
ΔV w.r.t. Earth (km/sec)9.0
semimajor axis (AU)2.4242120
mean anomaly (°)308.54934
mean daily motion (°/day)0.26112470
aphelion distance (AU)2.768
period (years)3.77
P-vector [x]-0.99533060
P-vector [y]0.05164121
P-vector [z]0.08154869
Q-vector [x]-0.07943610
Q-vector [y]-0.91818877
Q-vector [z]-0.38809701
absolute magnitude17.08
phase slope0.15
uncertainty0
referenceMPO 696514
observations used434
oppositions14
arc length (days)8497
first opposition used1998
last opposition used2022
residual rms (arc-secs)0.76
perturbers coarse indicatorM-v
perturbers precise indicator003Ek
first observation date used1998-12-22.0
last observation date used2022-03-28.0
computer namePan
JD of orbit computation2456639.723023
perihelion JD uncertainty (days)5.8304E-05
argument of perihelion uncertainty (°)1.0251E-04
ascending node uncertainty (°)1.0152E-04
inclination uncertainty (°)4.3728E-06
eccentricity uncertainty 7.0361E-08
perihelion distance uncertainty (AU)1.6609E-07
Minimum Orbit Intersection Distances (in AU)
for orbit epoch: 2458200.5, reference: MPO433729
Mercury1.68281
Venus1.36426
Earth1.09156
Mars0.42627
Jupiter2.19425
Saturn6.60635
Uranus16.1121
Neptune27.1317

Observations

445 total observations over interval: 1998 12 22.07468 – 2022 03 28.124443
These data are available for download (format description).

Date (UT) J2000 RA J2000 Dec Magn Location Ref
1998 12 22.07468 03 31 10.02 +16 45 33.4 20.8 V 691 – Steward Observatory, Kitt Peak-Spacewatch MPS 201566
1998 12 22.09634 03 31 09.13 +16 45 33.8 20.7 V 691 – Steward Observatory, Kitt Peak-Spacewatch MPS 201566
1998 12 22.11801 03 31 08.30 +16 45 32.5 21.2 V 691 – Steward Observatory, Kitt Peak-Spacewatch MPS 201566
2002 12 31.36040 05 41 15.71 +23 01 28.1 21.0 V 291 – LPL/Spacewatch II MPS 201566
2002 12 31.38661 05 41 14.01 +23 01 29.5 20.4 V 291 – LPL/Spacewatch II MPS 201566
2002 12 31.41295 05 41 12.26 +23 01 31.2 20.7 V 291 – LPL/Spacewatch II MPS 201566
2005 09 09.350037 00 44 48.904 -00 24 46.04 21.22 V 645 – Apache Point-Sloan Digital Sky Survey MPS 390481
2005 09 09.35041 00 44 48.90 -00 24 46.1 22.3   705 – Apache Point MPS 211853
2005 09 09.35123 00 44 48.87 -00 24 46.3 21.3 V 705 – Apache Point MPS 211853
2005 09 09.353509 00 44 48.774 -00 24 48.04 22.13   645 – Apache Point-Sloan Digital Sky Survey MPS 390481
2005 09 15.29536 00 40 20.13 -00 58 22.7 21.5   705 – Apache Point MPS 211551
2005 09 15.29619 00 40 20.09 -00 58 23.2 20.9 V 705 – Apache Point MPS 211551
2005 09 23.18400 00 33 40.52 -01 45 02.4 20.6 V 691 – Steward Observatory, Kitt Peak-Spacewatch MPS 201566
2005 09 23.20139 00 33 39.62 -01 45 09.2 20.8 V 691 – Steward Observatory, Kitt Peak-Spacewatch MPS 201566
2005 09 23.21878 00 33 38.66 -01 45 15.6 21.2 V 691 – Steward Observatory, Kitt Peak-Spacewatch MPS 201566
2006 11 15.39177 08 33 14.76 +19 14 59.5 20.9 V G96 – Mt. Lemmon Survey MPS 201566
2006 11 15.40013 08 33 15.15 +19 14 59.1 21.1 V G96 – Mt. Lemmon Survey MPS 201566
2006 11 15.40859 08 33 15.48 +19 14 58.0 21.0 V G96 – Mt. Lemmon Survey MPS 201566
2006 11 15.41702 08 33 15.94 +19 14 57.9 21.7 V G96 – Mt. Lemmon Survey MPS 201566
2006 11 28.45222 08 41 24.54 +19 05 20.5 21.1 V G96 – Mt. Lemmon Survey MPS 201566
2006 11 28.45794 08 41 24.72 +19 05 19.7 21.2 V G96 – Mt. Lemmon Survey MPS 201566
2006 11 28.46376 08 41 24.82 +19 05 19.9 20.9 V G96 – Mt. Lemmon Survey MPS 201566
2006 11 28.46953 08 41 24.97 +19 05 19.7 21.1 V G96 – Mt. Lemmon Survey MPS 201566
2007 01 09.23179 08 32 27.20 +21 03 49.3   691 – Steward Observatory, Kitt Peak-Spacewatch MPS 197162
2007 01 09.24916 08 32 26.25 +21 03 54.8   691 – Steward Observatory, Kitt Peak-Spacewatch MPS 197162
2007 01 09.26647 08 32 25.33 +21 04 00.4   691 – Steward Observatory, Kitt Peak-Spacewatch MPS 197162
2007 01 18.45059 08 23 43.02 +21 52 53.8 19.0 R 644 – Palomar Mountain/NEAT MPS 197162
2007 01 18.47214 08 23 41.65 +21 53 00.6 18.8 R 644 – Palomar Mountain/NEAT MPS 197162
2007 01 18.49372 08 23 40.35 +21 53 07.0 19.4 R 644 – Palomar Mountain/NEAT MPS 197162
2007 01 19.31677 08 22 50.27 +21 57 31.0 19.0 R 699 – Lowell Observatory-LONEOS MPS 197162
2007 01 19.33871 08 22 48.75 +21 57 38.6   699 – Lowell Observatory-LONEOS MPS 197162
2007 01 19.36064 08 22 47.37 +21 57 45.5   699 – Lowell Observatory-LONEOS MPS 197162
2007 01 19.38259 08 22 45.96 +21 57 52.8   699 – Lowell Observatory-LONEOS MPS 197162
2007 01 24.29024 08 17 38.75 +22 23 35.2 20.0   704 – Lincoln Laboratory ETS, New Mexico MPS 197162
2007 01 24.30250 08 17 37.92 +22 23 39.1 19.8   704 – Lincoln Laboratory ETS, New Mexico MPS 197162
2007 01 24.31477 08 17 37.11 +22 23 42.9 19.2   704 – Lincoln Laboratory ETS, New Mexico MPS 197162
2007 02 05.29516 08 05 25.59 +23 18 49.4 19.3 R 644 – Palomar Mountain/NEAT MPS 198783
2007 02 05.31625 08 05 24.35 +23 18 54.6 19.2 R 644 – Palomar Mountain/NEAT MPS 198783
2007 02 05.36294 08 05 21.56 +23 19 05.5 19.5 R 644 – Palomar Mountain/NEAT MPS 198783
2007 02 08.16034 08 02 48.35 +23 29 41.6   691 – Steward Observatory, Kitt Peak-Spacewatch MPS 198783
2007 02 08.17387 08 02 47.58 +23 29 44.7   691 – Steward Observatory, Kitt Peak-Spacewatch MPS 198783
2007 02 08.18741 08 02 46.72 +23 29 48.0   691 – Steward Observatory, Kitt Peak-Spacewatch MPS 198783
2009 09 17.40760 02 09 24.01 +08 19 45.3 21.2 V 691 – Steward Observatory, Kitt Peak-Spacewatch MPS 295043
2009 09 17.42520 02 09 23.51 +08 19 42.2 21.0 V 691 – Steward Observatory, Kitt Peak-Spacewatch MPS 295043
2009 09 17.44281 02 09 23.00 +08 19 38.6 21.2 V 691 – Steward Observatory, Kitt Peak-Spacewatch MPS 295043
2009 09 25.40355 02 05 06.24 +07 49 37.1 20.9 V 691 – Steward Observatory, Kitt Peak-Spacewatch MPS 295893
2009 09 25.42123 02 05 05.56 +07 49 32.9 20.8 V 691 – Steward Observatory, Kitt Peak-Spacewatch MPS 295893
2009 09 25.43890 02 05 04.83 +07 49 29.1 20.2 V 691 – Steward Observatory, Kitt Peak-Spacewatch MPS 295893
2009 10 17.35632 01 47 07.65 +06 03 51.1 20.3 V G96 – Mt. Lemmon Survey MPS 299432
2009 10 17.36206 01 47 07.29 +06 03 49.2 20.2 V G96 – Mt. Lemmon Survey MPS 299432
2009 10 17.36771 01 47 06.97 +06 03 47.3 20.5 V G96 – Mt. Lemmon Survey MPS 299432
2009 10 17.37347 01 47 06.64 +06 03 45.5 20.5 V G96 – Mt. Lemmon Survey MPS 299432
2009 11 16.21809 01 21 48.06 +04 06 13.1 21.4 V G96 – Mt. Lemmon Survey MPS 303360
2009 11 16.22461 01 21 47.77 +04 06 12.7 21.1 V G96 – Mt. Lemmon Survey MPS 303360
2009 11 16.23098 01 21 47.52 +04 06 12.0 20.4 V G96 – Mt. Lemmon Survey MPS 303360
2009 11 16.23756 01 21 47.26 +04 06 11.0 20.6 V G96 – Mt. Lemmon Survey MPS 303360
2011 01 25.42304 11 23 34.83 +08 31 21.6   691 – Steward Observatory, Kitt Peak-Spacewatch MPS 367078
2011 01 25.44420 11 23 34.77 +08 31 25.0   691 – Steward Observatory, Kitt Peak-Spacewatch MPS 367078
2011 01 25.46535 11 23 34.66 +08 31 29.2   691 – Steward Observatory, Kitt Peak-Spacewatch MPS 367078
2011 01 29.38776 11 23 17.06 +08 44 53.2 19.9 V 691 – Steward Observatory, Kitt Peak-Spacewatch MPS 368571
2011 01 29.40991 11 23 16.82 +08 44 58.5 19.9 V 691 – Steward Observatory, Kitt Peak-Spacewatch MPS 368571
2011 01 29.43197 11 23 16.58 +08 45 03.3 19.9 V 691 – Steward Observatory, Kitt Peak-Spacewatch MPS 368571
2011 02 09.36140 11 19 49.04 +09 37 37.2 19.6 V 703 – Catalina Sky Survey MPS 369558
2011 02 09.36771 11 19 48.86 +09 37 39.1 19.6 V 703 – Catalina Sky Survey MPS 369558
2011 02 09.37399 11 19 48.72 +09 37 41.2 19.5 V 703 – Catalina Sky Survey MPS 369558
2011 02 09.38038 11 19 48.46 +09 37 43.7 19.5 V 703 – Catalina Sky Survey MPS 369558
2011 02 11.31549 11 18 49.05 +09 48 59.9 19.7   704 – Lincoln Laboratory ETS, New Mexico MPS 369558
2011 02 11.32989 11 18 48.58 +09 49 04.6 19.7   704 – Lincoln Laboratory ETS, New Mexico MPS 369558
2011 02 11.34364 11 18 48.08 +09 49 10.2 19.9   704 – Lincoln Laboratory ETS, New Mexico MPS 369558
2011 02 11.35742 11 18 47.66 +09 49 15.3 20.0   704 – Lincoln Laboratory ETS, New Mexico MPS 369558
2011 02 11.37119 11 18 47.12 +09 49 20.4 19.7   704 – Lincoln Laboratory ETS, New Mexico MPS 369558
2011 02 23.40129 11 10 30.68 +11 07 28.5 18.9 V 703 – Catalina Sky Survey MPS 371919
2011 02 23.40881 11 10 30.28 +11 07 31.6 19.4 V 703 – Catalina Sky Survey MPS 371919
2011 02 23.41631 11 10 29.89 +11 07 35.7 18.8 V 703 – Catalina Sky Survey MPS 371919
2011 02 23.42382 11 10 29.53 +11 07 37.1 18.9 V 703 – Catalina Sky Survey MPS 371919
2011 02 26.89885 11 07 36.09 +11 31 15.8 18.6 V J75 – OAM Observatory, La Sagra MPS 373341
2011 02 26.91066 11 07 35.42 +11 31 19.9 18.7 V J75 – OAM Observatory, La Sagra MPS 373341
2011 02 26.92243 11 07 34.84 +11 31 25.3 18.3 V J75 – OAM Observatory, La Sagra MPS 373341
2011 02 27.36202 11 07 11.84 +11 34 25.6 18.7   704 – Lincoln Laboratory ETS, New Mexico MPS 373341
2011 02 27.37450 11 07 11.15 +11 34 29.8 19.0   704 – Lincoln Laboratory ETS, New Mexico MPS 373341
2011 02 27.41168 11 07 09.08 +11 34 42.2 19.4   704 – Lincoln Laboratory ETS, New Mexico MPS 373341
2011 02 28.37680 11 06 18.98 +11 41 16.8 18.9   704 – Lincoln Laboratory ETS, New Mexico MPS 373341
2011 02 28.42756 11 06 16.22 +11 41 37.0 19.2   704 – Lincoln Laboratory ETS, New Mexico MPS 373341
2011 02 28.44428 11 06 15.29 +11 41 42.9 19.4   704 – Lincoln Laboratory ETS, New Mexico MPS 373341
2011 03 02.29570 11 04 37.98 +11 54 06.8 18.7   704 – Lincoln Laboratory ETS, New Mexico MPS 373341
2011 03 02.30876 11 04 37.26 +11 54 11.7 19.1   704 – Lincoln Laboratory ETS, New Mexico MPS 373341
2011 03 02.32170 11 04 36.44 +11 54 16.9 19.1   704 – Lincoln Laboratory ETS, New Mexico MPS 373341
